Location: Unspecified
(0.0000°N, 0.0000°E)
Time: 18:54:37
(UTC+00:00)

Vanguard 3 - Pass Details

Date: 19 November 2019
Orbit: 508 x 3263 km, 33.3° (Epoch: 06 December)

Event Time Altitude Azimuth Distance (km) Brightness Sun altitude
Rises 07:43:00 0° 208° (SSW) 4,186 10.7 27.6°
Reaches altitude 10° 07:46:01 10° 195° (SSW) 3,572 10.6 28.3°
Maximum altitude 07:54:04 28° 139° (SE) 3,250 11.7 30.2°
Drops below altitude 10° 08:06:07 10° 88° (E) 5,495 12.5 32.9°
Sets 08:12:11 0° 78° (ENE) 6,872 12.6 34.3°
